{"data":{"norad_id":62591,"epoch":"2026-05-25T01:24:43.998048Z","epoch_age_seconds":73398,"freshness":"FRESH","line1":"1 62591U 25008E   26145.05884257  .00123691  00000+0  95125-3 0  9991","line2":"2 62591  43.0013  25.9703 0002213 261.7766  98.2851 15.70887022 79307","mean_motion":15.70887022,"eccentricity":0.0002213,"inclination_deg":43.0013,"raan_deg":25.9703,"arg_perigee_deg":261.7766,"mean_anomaly_deg":98.2851,"bstar":0.00095125,"rev_number":7930,"period_min":91.667954463501,"perigee_km":354.87032291098,"apogee_km":357.8510115785,"semimajor_km":6734.4976672447,"source":"CELESTRAK","updated_at":"2026-05-25T13:38:19.733800Z"}}